Location: Unspecified
(0.0000°N, 0.0000°E)
Time: 22:42:40
(UTC+00:00)

N. Korean satellite - Pass Details

Date: 13 March 2018
Orbit: 459 x 511 km, 97.2° (Epoch: 17 June)

Event Time Altitude Azimuth Distance (km) Brightness Sun altitude
Rises 18:48:47 0° 191° (S) 2,492 10.4 -9.8°
Reaches altitude 10° 18:51:08 10° 207° (SSW) 1,621 9.6 -10.4°
Maximum altitude 18:53:53 22° 259° (W) 1,072 9.4 -11.1°
Drops below altitude 10° 18:56:39 10° 312° (NW) 1,634 9.9 -11.8°
Sets 18:59:02 0° 327° (NNW) 2,519 10.6 -12.4°
